N5CSU Weather Reports


Display with metric or nautical units.
time (UTC)temp
F
wind
direction
speed
MPH
gust
MPH
rain 1hr
in
rain 24hr
in
rain mn
in
humidity
%
barometer
mb
20260905180917 98 188 1.0 1.0 0.00 0.00 0.00 43 1014.0
20260905180412 97 88 1.0 1.0 0.00 0.00 0.00 44 1014.2
20260905175907 96 241 1.0 1.0 0.00 0.00 0.00 45 1014.1
20260905175406 96 204 1.0 1.0 0.00 0.00 0.00 46 1014.2
20260905174901 97 21 2.0 2.0 0.00 0.00 0.00 45 1014.3
20260905174358 97 206 0.0 1.0 0.00 0.00 0.00 45 1014.3
20260905173853 97 195 0.0 1.0 0.00 0.00 0.00 47 1014.5
20260905173349 96 206 0.0 1.0 0.00 0.00 0.00 46 1014.6
20260905172844 96 172 1.0 1.0 0.00 0.00 0.00 47 1014.5
20260905172342 95 204 0.0 0.0 0.00 0.00 0.00 48 1014.7
20260905171838 95 281 0.0 1.0 0.00 0.00 0.00 47 1014.6
20260905171335 96 202 0.0 0.0 0.00 0.00 0.00 50 1014.8
20260905170831 95 205 0.0 0.0 0.00 0.00 0.00 48 1014.8
20260905170327 95 204 0.0 0.0 0.00 0.00 0.00 50 1014.7
20260905165826 95 201 0.0 0.0 0.00 0.00 0.00 51 1015.0
20260905165321 95 200 0.0 0.0 0.00 0.00 0.00 50 1014.9
20260905164821 95 175 1.0 1.0 0.00 0.00 0.00 50 1014.9
20260905164315 94 198 0.0 0.0 0.00 0.00 0.00 51 1014.9
20260905163811 96 59 1.0 1.0 0.00 0.00 0.00 49 1015.1
20260905163307 94 200 0.0 0.0 0.00 0.00 0.00 51 1015.0
20260905162803 94 209 0.0 1.0 0.00 0.00 0.00 52 1015.0
20260905162305 94 201 0.0 1.0 0.00 0.00 0.00 53 1015.1
20260905161757 94 196 0.0 0.0 0.00 0.00 0.00 52 1015.0
20260905161256 92 188 1.0 2.0 0.00 0.00 0.00 54 1015.0
20260905160754 93 144 1.0 1.0 0.00 0.00 0.00 55 1015.1
20260905160249 92 220 0.0 0.0 0.00 0.00 0.00 55 1015.2
20260905155744 91 228 0.0 0.0 0.00 0.00 0.00 53 1015.1
20260905155243 91 196 0.0 1.0 0.00 0.00 0.00 59 1015.0
20260905154737 90 187 0.0 0.0 0.00 0.00 0.00 60 1014.9
20260905154233 89 155 0.0 0.0 0.00 0.00 0.00 64 1014.9
20260905153728 89 184 0.0 0.0 0.00 0.00 0.00 64 1014.8
20260905153224 89 185 0.0 0.0 0.00 0.00 0.00 66 1015.1
20260905152719 88 180 0.0 0.0 0.00 0.00 0.00 67 1015.1
20260905152213 88 196 0.0 0.0 0.00 0.00 0.00 68 1015.0
20260905151713 88 181 0.0 0.0 0.00 0.00 0.00 68 1015.1
20260905151209 87 195 0.0 0.0 0.00 0.00 0.00 69 1015.1
20260905150704 87 196 0.0 0.0 0.00 0.00 0.00 71 1014.8
20260905150203 86 194 0.0 0.0 0.00 0.00 0.00 71 1014.8
20260905145701 86 186 0.0 0.0 0.00 0.00 0.00 71 1014.9
20260905145201 86 194 0.0 0.0 0.00 0.00 0.00 72 1014.8
20260905144655 86 187 0.0 0.0 0.00 0.00 0.00 72 1014.8
20260905144154 85 196 0.0 0.0 0.00 0.00 0.00 74 1014.7
20260905143648 85 186 0.0 0.0 0.00 0.00 0.00 73 1015.0
20260905143143 84 214 0.0 0.0 0.00 0.00 0.00 74 1014.8
20260905142642 84 188 0.0 0.0 0.00 0.00 0.00 76 1014.9
20260905142137 84 210 0.0 0.0 0.00 0.00 0.00 76 1014.9
20260905141636 83 205 0.0 0.0 0.00 0.00 0.00 78 1014.8
20260905141133 83 186 0.0 0.0 0.00 0.00 0.00 77 1014.9
20260905140627 83 203 0.0 0.0 0.00 0.00 0.00 78 1014.8
20260905140127 82 179 0.0 0.0 0.00 0.00 0.00 78 1014.9
20260905135622 82 184 0.0 0.0 0.00 0.00 0.00 79 1015.0
20260905135117 82 185 0.0 0.0 0.00 0.00 0.00 78 1014.8
20260905134612 81 185 0.0 1.0 0.00 0.00 0.00 80 1014.9
20260905134110 80 186 0.0 0.0 0.00 0.00 0.00 82 1014.8
20260905133607 80 208 0.0 0.0 0.00 0.00 0.00 84 1014.9
20260905133106 79 211 0.0 0.0 0.00 0.00 0.00 83 1014.6
20260905132606 79 205 0.0 0.0 0.00 0.00 0.00 86 1014.6
20260905132100 78 204 0.0 0.0 0.00 0.00 0.00 86 1014.5
20260905131556 78 204 0.0 0.0 0.00 0.00 0.00 87 1014.5
20260905131051 78 205 0.0 0.0 0.00 0.00 0.00 88 1014.4
20260905130550 77 205 0.0 0.0 0.00 0.00 0.00 89 1014.5
20260905130046 77 205 0.0 0.0 0.00 0.00 0.00 89 1014.2
20260905125545 76 205 0.0 0.0 0.00 0.00 0.00 90 1014.3
20260905125041 76 208 0.0 0.0 0.00 0.00 0.00 90 1014.2
20260905124537 76 208 0.0 0.0 0.00 0.00 0.00 90 1014.1
20260905124033 76 208 0.0 0.0 0.00 0.00 0.00 90 1014.3
20260905123528 75 208 0.0 0.0 0.00 0.00 0.00 90 1014.2
20260905123026 75 208 0.0 0.0 0.00 0.00 0.00 90 1014.1
20260905122525 75 208 0.0 0.0 0.00 0.00 0.00 90 1014.2
20260905122020 75 208 0.0 0.0 0.00 0.00 0.00 90 1014.2
20260905121514 75 208 0.0 0.0 0.00 0.00 0.00 90 1014.2
20260905121009 75 208 0.0 0.0 0.00 0.00 0.00 90 1014.1
20260905120503 75 208 0.0 0.0 0.00 0.00 0.00 90 1014.4
20260905115958 75 208 0.0 0.0 0.00 0.00 0.00 90 1014.3
20260905115457 75 208 0.0 0.0 0.00 0.00 0.00 90 1014.2
20260905114952 75 208 0.0 0.0 0.00 0.00 0.00 90 1014.2
20260905114451 75 208 0.0 0.0 0.00 0.00 0.00 90 1014.1
20260905113950 76 208 0.0 0.0 0.00 0.00 0.00 90 1014.1
20260905113446 75 209 0.0 0.0 0.00 0.00 0.00 90 1014.1
20260905112941 75 209 0.0 0.0 0.00 0.00 0.00 89 1014.0
20260905112436 76 209 0.0 0.0 0.00 0.00 0.00 90 1014.3
20260905111931 76 209 0.0 0.0 0.00 0.00 0.00 89 1014.0
20260905111425 76 208 0.0 0.0 0.00 0.00 0.00 89 1014.0
20260905110920 76 208 0.0 0.0 0.00 0.00 0.00 89 1014.0
20260905110414 76 208 0.0 0.0 0.00 0.00 0.00 89 1014.0
20260905105909 76 208 0.0 0.0 0.00 0.00 0.00 88 1014.0
20260905105409 76 208 0.0 0.0 0.00 0.00 0.00 88 1014.1
20260905104908 76 208 0.0 0.0 0.00 0.00 0.00 88 1013.8
20260905104404 76 208 0.0 0.0 0.00 0.00 0.00 88 1013.9
20260905103859 76 208 0.0 0.0 0.00 0.00 0.00 88 1013.8
20260905103354 77 208 0.0 0.0 0.00 0.00 0.00 88 1013.8
20260905102850 77 208 0.0 0.0 0.00 0.00 0.00 87 1014.1
20260905102346 77 208 0.0 0.0 0.00 0.00 0.00 87 1013.9
20260905101846 77 208 0.0 0.0 0.00 0.00 0.00 87 1013.8
20260905101344 77 208 0.0 0.0 0.00 0.00 0.00 87 1013.9
20260905100839 77 195 0.0 0.0 0.00 0.00 0.00 85 1013.7
20260905100335 77 186 0.0 0.0 0.00 0.00 0.00 87 1013.7
20260905095834 77 184 0.0 0.0 0.00 0.00 0.00 88 1013.9
20260905095329 77 187 0.0 0.0 0.00 0.00 0.00 87 1013.5
20260905094823 77 208 0.0 0.0 0.00 0.00 0.00 85 1013.7
20260905094319 78 208 1.0 1.0 0.00 0.00 0.00 88 1013.7
20260905093812 78 204 0.0 0.0 0.00 0.00 0.00 85 1013.8
20260905093308 79 203 0.0 0.0 0.00 0.00 0.00 80 1013.7
20260905092804 79 197 0.0 0.0 0.00 0.00 0.00 79 1013.9
20260905092259 79 197 0.0 0.0 0.00 0.00 0.00 79 1013.9
20260905091758 79 197 0.0 0.0 0.00 0.00 0.00 79 1013.8
20260905091253 80 197 0.0 0.0 0.00 0.00 0.00 78 1013.7
20260905090752 80 197 0.0 0.0 0.00 0.00 0.00 78 1013.9
20260905090248 80 197 0.0 0.0 0.00 0.00 0.00 78 1013.5
20260905085747 80 197 0.0 0.0 0.00 0.00 0.00 77 1013.5
20260905085247 80 197 0.0 0.0 0.00 0.00 0.00 77 1013.5
20260905084742 81 197 0.0 0.0 0.00 0.00 0.00 76 1013.7
20260905084242 81 197 0.0 0.0 0.00 0.00 0.00 76 1013.4
20260905083737 81 197 0.0 0.0 0.00 0.00 0.00 75 1013.3
20260905083232 81 197 0.0 0.0 0.00 0.00 0.00 75 1013.4
20260905082728 81 197 0.0 0.0 0.00 0.00 0.00 75 1013.2
20260905082223 81 200 0.0 0.0 0.00 0.00 0.00 75 1013.3
20260905081718 81 198 0.0 0.0 0.00 0.00 0.00 75 1013.3
20260905081214 81 195 0.0 0.0 0.00 0.00 0.00 75 1013.3
20260905080713 82 195 0.0 0.0 0.00 0.00 0.00 74 1013.2
20260905080212 82 197 0.0 0.0 0.00 0.00 0.00 74 1013.2
20260905075712 82 197 0.0 0.0 0.00 0.00 0.00 74 1013.3
20260905075211 82 197 0.0 0.0 0.00 0.00 0.00 74 1013.1
20260905074710 82 197 0.0 0.0 0.00 0.00 0.00 74 1013.3
20260905074206 82 194 0.0 0.0 0.00 0.00 0.00 74 1013.5
20260905073701 82 194 0.0 0.0 0.00 0.00 0.00 74 1013.4
20260905073157 82 201 0.0 0.0 0.00 0.00 0.00 74 1013.4
20260905072656 82 202 0.0 0.0 0.00 0.00 0.00 75 1013.8
20260905072151 82 202 0.0 0.0 0.00 0.00 0.00 75 1013.5
20260905071648 82 197 0.0 0.0 0.00 0.00 0.00 75 1013.9
20260905071143 82 197 0.0 0.0 0.00 0.00 0.00 75 1013.7
20260905070638 82 197 0.0 0.0 0.00 0.00 0.00 75 1013.8
20260905070134 82 197 0.0 0.0 0.00 0.00 0.00 74 1013.9
20260905065633 82 197 0.0 0.0 0.00 0.00 0.00 74 1013.9
20260905065127 82 197 0.0 0.0 0.00 0.00 0.00 74 1013.9
20260905064623 82 197 0.0 0.0 0.00 0.00 0.00 74 1013.9
20260905064118 82 197 0.0 0.0 0.00 0.00 0.00 74 1013.7
20260905063617 82 197 0.0 0.0 0.00 0.00 0.00 73 1013.8
20260905063113 82 197 0.0 0.0 0.00 0.00 0.00 73 1013.9
20260905062609 82 197 0.0 0.0 0.00 0.00 0.00 73 1013.8
20260905062108 83 196 0.0 0.0 0.00 0.00 0.00 72 1013.9
20260905061603 83 196 0.0 0.0 0.00 0.00 0.00 72 1014.0
20260905061102 83 196 0.0 0.0 0.00 0.00 0.00 71 1013.9
20260905060558 83 196 0.0 0.0 0.00 0.00 0.00 71 1014.0
20260905060054 84 198 0.0 0.0 0.00 0.00 0.00 70 1014.0
20260905055552 84 198 0.0 0.0 0.00 0.00 0.00 70 1013.8
20260905055042 84 198 0.0 0.0 0.00 0.00 0.00 69 1013.9
20260905054538 84 198 0.0 0.0 0.00 0.00 0.00 69 1013.7
20260905054033 84 197 0.0 0.0 0.00 0.00 0.00 69 1013.6
20260905053532 85 197 0.0 0.0 0.00 0.00 0.00 68 1013.5
20260905053028 85 197 0.0 0.0 0.00 0.00 0.00 68 1013.6
20260905052527 85 198 0.0 0.0 0.00 0.00 0.00 67 1013.5
20260905052022 85 198 0.0 0.0 0.00 0.00 0.00 67 1013.4
20260905051517 86 198 0.0 0.0 0.00 0.00 0.00 66 1013.4
20260905051014 86 202 0.0 0.0 0.00 0.00 0.00 66 1013.3
20260905050510 86 202 0.0 0.0 0.00 0.00 0.00 66 1013.4
20260905050002 86 208 0.0 0.0 0.00 0.00 0.00 66 1013.4
20260905045455 86 199 0.0 0.0 0.00 0.00 0.00 65 1013.6
20260905044951 86 193 0.0 0.0 0.00 0.00 0.00 65 1013.5
20260905044451 86 198 0.0 0.0 0.00 0.00 0.00 65 1013.4
20260905043945 87 187 0.0 0.0 0.00 0.00 0.00 64 1013.5
20260905043444 87 195 0.0 0.0 0.00 0.00 0.00 64 1013.3
20260905042939 87 205 0.0 0.0 0.00 0.00 0.00 64 1013.3
20260905042433 87 206 0.0 0.0 0.00 0.00 0.00 63 1013.4
20260905041928 87 199 0.0 0.0 0.00 0.00 0.00 63 1013.4
20260905041419 87 207 0.0 0.0 0.00 0.00 0.00 62 1013.4
20260905040919 88 205 0.0 0.0 0.00 0.00 0.00 62 1013.5
20260905040413 88 215 0.0 0.0 0.00 0.00 0.00 62 1013.6
20260905035912 88 209 0.0 0.0 0.00 0.00 0.00 61 1013.4
20260905035407 88 209 0.0 0.0 0.00 0.00 0.00 61 1013.4
20260905034904 88 188 0.0 0.0 0.00 0.00 0.00 60 1013.5
20260905034359 88 205 0.0 0.0 0.00 0.00 0.00 60 1013.5
20260905033857 88 183 0.0 0.0 0.00 0.00 0.00 60 1013.6
20260905033353 88 194 0.0 0.0 0.00 0.00 0.00 60 1013.5
20260905032852 88 207 0.0 0.0 0.00 0.00 0.00 59 1013.4
20260905032348 88 198 0.0 0.0 0.00 0.00 0.00 59 1013.5
20260905031843 89 204 0.0 0.0 0.00 0.00 0.00 59 1013.5
20260905031339 89 203 0.0 0.0 0.00 0.00 0.00 58 1013.4
20260905030833 89 198 0.0 0.0 0.00 0.00 0.00 58 1013.5
20260905030329 89 198 0.0 0.0 0.00 0.00 0.00 58 1013.4
20260905025828 89 196 0.0 0.0 0.00 0.00 0.00 57 1013.4
20260905025324 89 214 0.0 0.0 0.00 0.00 0.00 57 1013.2
20260905024820 89 208 0.0 0.0 0.00 0.00 0.00 56 1013.1
20260905024315 89 201 0.0 0.0 0.00 0.00 0.00 56 1013.1
20260905023805 90 201 0.0 0.0 0.00 0.00 0.00 55 1013.1
20260905023300 90 194 0.0 0.0 0.00 0.00 0.00 55 1013.0
20260905022759 90 207 0.0 0.0 0.00 0.00 0.00 55 1013.0
20260905022255 90 193 0.0 0.0 0.00 0.00 0.00 54 1012.8
20260905021754 90 214 0.0 0.0 0.00 0.00 0.00 54 1012.7
20260905021249 90 203 0.0 0.0 0.00 0.00 0.00 54 1012.6
20260905020744 91 183 0.0 0.0 0.00 0.00 0.00 53 1012.4
20260905020240 90 205 0.0 0.0 0.00 0.00 0.00 54 1012.4
20260905015738 91 203 0.0 0.0 0.00 0.00 0.00 54 1012.4
20260905015233 91 197 0.0 0.0 0.00 0.00 0.00 53 1012.3
20260905014732 91 195 0.0 0.0 0.00 0.00 0.00 53 1012.2
20260905014227 91 203 0.0 0.0 0.00 0.00 0.00 53 1012.2
20260905013723 91 198 0.0 0.0 0.00 0.00 0.00 52 1012.1
20260905013219 91 199 0.0 0.0 0.00 0.00 0.00 52 1012.1
20260905012714 92 197 0.0 0.0 0.00 0.00 0.00 52 1012.0
20260905012210 92 204 0.0 0.0 0.00 0.00 0.00 52 1012.0
20260905011706 92 215 0.0 0.0 0.00 0.00 0.00 51 1012.2
20260905011201 92 123 0.0 0.0 0.00 0.00 0.00 51 1012.1
20260905010656 93 123 0.0 0.0 0.00 0.00 0.00 50 1011.8
20260905010152 93 208 0.0 0.0 0.00 0.00 0.00 50 1011.6
20260905005648 93 204 0.0 0.0 0.00 0.00 0.00 50 1011.7
20260905005143 93 193 0.0 0.0 0.00 0.00 0.00 50 1011.8
20260905004637 93 193 0.0 0.0 0.00 0.00 0.00 50 1011.8
20260905004133 93 186 0.0 0.0 0.00 0.00 0.00 49 1011.6
20260905003628 93 199 0.0 0.0 0.00 0.00 0.00 49 1011.7
20260905003124 93 201 0.0 0.0 0.00 0.00 0.00 49 1011.6
20260905002619 94 199 0.0 0.0 0.00 0.00 0.00 48 1011.7
20260905002114 94 205 0.0 0.0 0.00 0.00 0.00 49 1011.5
20260905001609 94 203 0.0 0.0 0.00 0.00 0.00 48 1011.4
20260905001108 94 202 0.0 1.0 0.00 0.00 0.00 47 1011.3
20260905000603 95 208 0.0 0.0 0.00 0.00 0.00 46 1011.5
20260905000100 95 162 2.0 2.0 0.00 0.00 0.00 46 1011.4
20260904235554 95 209 0.0 1.0 0.00 0.00 0.00 47 1011.4
20260904235054 95 187 0.0 0.0 0.00 0.00 0.00 46 1011.3
20260904234549 96 174 0.0 0.0 0.00 0.00 0.00 46 1011.2
20260904234045 95 194 0.0 0.0 0.00 0.00 0.00 46 1011.4
20260904233545 96 196 0.0 0.0 0.00 0.00 0.00 47 1011.3
20260904233041 96 192 0.0 1.0 0.00 0.00 0.00 46 1011.3
20260904232537 96 205 0.0 0.0 0.00 0.00 0.00 46 1011.1
20260904232034 96 197 0.0 1.0 0.00 0.00 0.00 45 1011.3
20260904231530 96 201 0.0 1.0 0.00 0.00 0.00 47 1011.2
20260904231030 97 209 0.0 0.0 0.00 0.00 0.00 46 1011.2
20260904230529 97 192 0.0 0.0 0.00 0.00 0.00 46 1011.3
20260904230025 97 224 0.0 0.0 0.00 0.00 0.00 47 1011.2
20260904225522 97 194 1.0 1.0 0.00 0.00 0.00 47 1011.1
20260904225021 96 168 1.0 1.0 0.00 0.00 0.00 47 1011.3
20260904224517 97 194 0.0 0.0 0.00 0.00 0.00 47 1011.3
20260904224017 97 185 0.0 1.0 0.00 0.00 0.00 47 1011.4
20260904223516 96 191 0.0 0.0 0.00 0.00 0.00 48 1011.4
20260904223012 96 211 0.0 0.0 0.00 0.00 0.00 48 1011.4
20260904222508 97 222 0.0 0.0 0.00 0.00 0.00 47 1011.5
20260904222008 98 194 0.0 0.0 0.00 0.00 0.00 47 1011.6
20260904221502 98 211 0.0 0.0 0.00 0.00 0.00 47 1011.4
20260904220957 98 194 0.0 0.0 0.00 0.00 0.00 46 1011.4
20260904220456 97 180 1.0 1.0 0.00 0.00 0.00 46 1011.5
20260904215952 98 237 1.0 2.0 0.00 0.00 0.00 45 1011.4
20260904215447 98 213 0.0 0.0 0.00 0.00 0.00 45 1011.5
20260904214943 97 160 1.0 1.0 0.00 0.00 0.00 47 1011.6
20260904214438 97 177 2.0 2.0 0.00 0.00 0.00 47 1011.7
20260904213933 97 201 0.0 0.0 0.00 0.00 0.00 45 1011.8
20260904213426 97 211 0.0 0.0 0.00 0.00 0.00 46 1011.7
20260904212923 97 200 0.0 0.0 0.00 0.00 0.00 45 1011.6
20260904212422 98 202 0.0 1.0 0.00 0.00 0.00 45 1011.9
20260904211918 98 212 1.0 1.0 0.00 0.00 0.00 44 1012.0
20260904211413 97 182 0.0 0.0 0.00 0.00 0.00 46 1011.8
20260904210908 98 139 0.0 1.0 0.00 0.00 0.00 46 1012.0
20260904210407 98 218 1.0 1.0 0.00 0.00 0.00 44 1012.0
20260904205903 99 205 0.0 0.0 0.00 0.00 0.00 44 1012.1
20260904205358 99 231 0.0 0.0 0.00 0.00 0.00 43 1012.1
20260904204855 99 214 0.0 0.0 0.00 0.00 0.00 44 1012.0
20260904204351 98 199 0.0 0.0 0.00 0.00 0.00 45 1012.2
20260904203847 98 184 0.0 0.0 0.00 0.00 0.00 45 1012.2
20260904203343 98 156 0.0 0.0 0.00 0.00 0.00 45 1012.2
20260904202838 98 196 0.0 0.0 0.00 0.00 0.00 46 1012.5
20260904202335 97 204 0.0 0.0 0.00 0.00 0.00 46 1012.3
20260904201830 98 177 1.0 1.0 0.00 0.00 0.00 47 1012.6
20260904201325 97 211 1.0 1.0 0.00 0.00 0.00 46 1012.7
20260904200820 97 189 0.0 0.0 0.00 0.00 0.00 47 1012.6
20260904200318 96 181 1.0 1.0 0.00 0.00 0.00 48 1012.6
20260904195814 96 213 0.0 0.0 0.00 0.00 0.00 48 1013.0
20260904195312 97 195 0.0 1.0 0.00 0.00 0.00 48 1012.9
20260904194807 98 207 0.0 1.0 0.00 0.00 0.00 46 1013.1
20260904194306 98 206 0.0 0.0 0.00 0.00 0.00 45 1013.1
20260904193801 96 184 0.0 1.0 0.00 0.00 0.00 47 1013.2
20260904193257 97 206 1.0 1.0 0.00 0.00 0.00 47 1013.3
20260904192752 97 200 0.0 1.0 0.00 0.00 0.00 46 1013.3
20260904192247 98 194 2.0 2.0 0.00 0.00 0.00 45 1013.3
20260904191744 98 181 0.0 1.0 0.00 0.00 0.00 46 1013.4
20260904191240 97 195 1.0 1.0 0.00 0.00 0.00 46 1013.5
20260904190736 97 194 1.0 1.0 0.00 0.00 0.00 47 1013.4
20260904190232 98 201 0.0 0.0 0.00 0.00 0.00 47 1013.5
20260904185728 98 231 1.0 1.0 0.00 0.00 0.00 46 1013.6
20260904185222 97 199 0.0 0.0 0.00 0.00 0.00 48 1013.6
20260904184721 96 215 0.0 1.0 0.00 0.00 0.00 46 1013.8
20260904184217 97 208 1.0 1.0 0.00 0.00 0.00 47 1013.8
20260904183713 96 193 0.0 0.0 0.00 0.00 0.00 48 1013.7
20260904183213 96 237 1.0 2.0 0.00 0.00 0.00 47 1013.9
20260904182708 97 206 0.0 1.0 0.00 0.00 0.00 47 1013.9
20260904182203 96 227 0.0 0.0 0.00 0.00 0.00 47 1013.9
20260904181659 96 205 0.0 0.0 0.00 0.00 0.00 48 1014.3
20260904181158 96 182 1.0 1.0 0.00 0.00 0.00 49 1014.2